This demonstration page uses our WeatherBlox Daily Observations layout. Learn more.

Left ArrowRight Arrow

31.84235, -102.49876

Hourly Observations for November 5, 2015

Temp ( °F °C ) Dew Point ( °F °C ) Humidity (%) Winds ( mph kmh ) Pressure ( in mb ) Visibility ( mi km ) Precip ( " mm )
12:53 am 00:53 Cloudy 68 20 62 16.7 81 81 SW 14 22 29.84 1011 8 13 0.00 0.00
1:14 am 01:14 Cloudy 68 20 62 16.7 81 81 SW 15 24 29.85 1011 8 13 0.00 0.00
1:25 am 01:25 Cloudy 68 20 62 16.7 81 81 SSW 15 24 29.85 1011 8 13 0.00 0.00
1:53 am 01:53 Clear 67 19.4 62 16.7 84 84 SW 13 20 29.84 1010 8 13 0.00 0.00
2:53 am 02:53 Hazy 66 18.9 61 16.1 84 84 SSW 10 17 29.83 1010 6 10 0.00 0.00
3:53 am 03:53 Clear with Mist and Fog 64 17.8 61 16.1 90 90 SW 8 13 29.84 1011 6 10 0.00 0.00
4:53 am 04:53 Clear with Mist and Fog 63 17.2 60 15.6 90 90 SW 6 9 29.84 1011 5 8 0.00 0.00
5:37 am 05:37 Clear with Mist and Fog 60 15.6 58 14.4 93 93 WNW 5 7 29.88 1012 2 3 0.00 0.00
5:48 am 05:48 Mostly Cloudy with Fog 59 15 57 14 94 94 WNW 6 9 29.91 1013 0 0 0.00 0.00
5:53 am 05:53 Mostly Cloudy with Fog 59 15 57 13.9 93 93 WNW 6 9 29.87 1011 0 0 0.00 0.00
6:53 am 06:53 Mostly Cloudy with Fog 57 13.9 55 12.8 93 93 WNW 3 6 29.89 1012 5 8 0.00 0.00
7:53 am 07:53 Mostly Cloudy with Fog 56 13.3 54 12.2 93 93 Calm 29.91 1013 5 8 0.00 0.00
8:37 am 08:37 Partly Cloudy with Fog 57 13.9 56 13.3 96 96 Calm 29.97 1015 5 8 0.00 0.00
8:53 am 08:53 Partly Cloudy with Fog 58 14.4 57 13.9 97 97 Calm 29.94 1014 0 0 0.00 0.00
9:34 am 09:34 Hazy 65 18.3 55 12.8 70 70 Calm 29.94 1014 1 1 0.00 0.00
9:39 am 09:39 Hazy 66 18.9 54 12.2 65 65 Calm 29.94 1014 2 3 0.00 0.00
9:49 am 09:49 Hazy 66 19 54 12 64 64 Calm 29.94 1014 4 6 0.00 0.00
9:53 am 09:53 Hazy 68 20 51 10.6 55 55 Calm 29.94 1014 5 8 0.00 0.00
10:53 am 10:53 undefined N/A N/A N/A undefined N/A N/A N/A 0.00 0.00
11:53 am 11:53 undefined 75 23.9 41 5 29 29 W 13 20 29.91 1013 N/A 0.00 0.00
12:53 pm 12:53 Sunny 77 25 40 4.4 26 26 WSW 15 24 29.88 1012 10 16 0.00 0.00
1:53 pm 13:53 Sunny 78 25.6 37 2.8 23 23 W 23 37 29.88 1012 10 16 0.00 0.00
2:53 pm 14:53 Sunny 78 25.6 35 1.7 21 21 W 26 43 29.88 1012 10 16 0.00 0.00
3:20 pm 15:20 Mostly Sunny 78 25.6 37 2.8 23 23 W 25 41 29.83 1010 10 16 0.00 0.00
3:53 pm 15:53 Hazy 76 24.4 28 -2.2 17 17 WNW 29 46 29.91 1013 6 10 0.00 0.00
4:53 pm 16:53 Sunny 73 22.8 34 1.1 24 24 W 16 26 29.95 1014 10 16 0.00 0.00
5:53 pm 17:53 Sunny 69 20.6 35 1.7 29 29 W 12 19 29.98 1015 10 16 0.00 0.00
6:53 pm 18:53 Clear 64 17.8 32 0 30 30 NW 12 19 30.01 1016 10 16 0.00 0.00
7:53 pm 19:53 Clear 59 15 29 -1.7 32 32 NNW 8 13 30.04 1017 10 16 0.00 0.00
8:53 pm 20:53 Clear 54 12.2 30 -1.1 40 40 NNW 8 13 30.06 1018 10 16 0.00 0.00
9:53 pm 21:53 undefined 54 12.2 28 -2.2 37 37 NNW 9 15 30.06 1018 10 16 0.00 0.00
10:53 pm 22:53 Clear 52 11.1 27 -2.8 38 38 N 9 15 30.12 1020 10 16 0.00 0.00
11:53 pm 23:53 Clear 50 10 28 -2.2 43 43 N 8 13 30.08 1019 10 16 0.00 0.00

Powered by AerisWeather